www.pogodaiklimat.ru

Погода и климат >> Архив погоды >> Беларусь >> Ивацевичи


ПОГОДА в Ивацевичах

  • Прогноз погоды в Ивацевичах
  • Монитор погоды в Ивацевичах
  • Климат города

АРХИВ ПОГОДЫ в Ивацевичах

Время (UTC), дата Ветер
(напр.,м/с)
 
Видим.   Явления Облачность Т
(С)
Тd
(С)
f
(%)
Тe
(С)
Тes
(С)
Комфортность P
(гПа)
Po
(гПа)
Тmin
(С)
Tmax
(С)
R
(мм)
R24
(мм)
S
(см)
09 14.11 З 2 10 км 10 баллов +3.0 +1.8 92 -0 -0 1019.0 999.5
12 14.11 З 2 10 км 10 баллов +4.5 +1.4 80 +2 +2 1020.0 1000.6
15 14.11 З 2 10 км 10 баллов +3.5 +1.9 89 +1 +1 1022.0 1002.5
18 14.11 З 3 10 км 10 баллов +2.9 +0.6 85 -1 -1 1023.0 1003.4 +4.6
21 14.11 ЮЗ 3 н/о н/о +2.1 -0.6 82 -2 -2 1023.0 1003.4
00 15.11 ЮЗ 1 н/о н/о +1.3 -0.9 85 -1 -1 1023.0 1003.3
03 15.11 ЮЗ 4 н/о н/о +1.7 -0.5 85 -3 -3 1022.0 1002.4 +1.2
06 15.11 ЮЗ 4 10 км 10 баллов +1.8 -0.1 87 -3 -3 1023.0 1003.4 +1.2
09 15.11 ЮЗ 3 10 км 10 баллов +3.2 +1.6 89 -1 -1 1024.0 1004.4
12 15.11 ЮЗ 3 10 км 10 баллов +4.5 +2.7 88 +1 +1 1024.0 1004.5
15 15.11 ЮЗ 4 8000 м дымка 10 баллов +4.1 +2.9 92 -0 -0 1025.0 1005.5
18 15.11 ЮЗ 4 8000 м дымка 10 баллов +4.2 +2.9 91 -0 -0 1025.0 1005.5 +4.7 0.3
21 15.11 ЮЗ 4 н/о н/о +4.4 +3.1 91 0 0 1025.0 1005.5
00 16.11 ЮЗ 3 н/о н/о +4.3 +3.0 91 +1 +1 1026.0 1006.5
03 16.11 З 3 н/о н/о +4.3 +3.3 93 +1 +1 1026.0 1006.5 +4.1
06 16.11 З 2 5000 м дымка 10 баллов +4.1 +3.2 94 +1 +1 1026.0 1006.5 +4.1
09 16.11 ЮЗ 2 10 км 10 баллов +5.6 +3.9 89 +3 +3 1028.0 1008.5
12 16.11 ЮЗ 1 10 км 10 баллов +6.4 +3.7 83 +5 +5 1027.0 1007.6
15 16.11 ЮЗ 1 8000 м дымка 6 баллов +4.1 +2.8 91 +3 +3 1027.0 1007.5
18 16.11 штиль 0 3000 м дымка 3 балла +2.1 +1.8 98 +1 +1 1027.0 1007.3 +6.5
21 16.11 штиль 0 н/о н/о +0.1 +0.1 100 -1 -1 1027.0 1007.2
00 17.11 штиль 0 н/о н/о +0.5 +0.5 100 -1 -1 1026.0 1006.2
03 17.11 Ю 1 н/о н/о +1.7 +1.7 100 -0 -0 1025.0 1005.3 -0.7
06 17.11 Ю 1 5000 м дымка 10 баллов +1.8 +1.2 96 -0 -0 1024.0 1004.3 -0.7
09 17.11 Ю 2 8000 м дымка 10 баллов +2.7 +1.2 90 -1 -1 1023.0 1003.4
12 17.11 ЮЗ 2 10 км 10 баллов +4.5 +0.3 74 +2 +2 1022.0 1002.6
15 17.11 Ю 1 10 км 10 баллов +3.0 +0.1 81 +2 +2 1022.0 1002.5
18 17.11 ЮЗ 2 10 км 10 баллов +3.1 +0.3 82 0 0 1021.0 1001.5 +4.5
21 17.11 ЮЗ 3 н/о н/о +2.5 +1.2 91 -2 -2 1021.0 1001.4
00 18.11 ЮЗ 1 н/о н/о +2.5 +2.1 97 +1 +1 1021.0 1001.5
03 18.11 З 1 н/о н/о +2.7 +2.4 98 +1 +1 1020.0 1000.5 +2.4
06 18.11 штиль 0 3500 м дымка 10 баллов +1.7 +1.3 97 0 0 1020.0 1000.4 +1.7 0.3
09 18.11 штиль 0 4000 м дымка 10 баллов +1.4 +0.8 96 0 0 1019.0 999.4
12 18.11 З 2 10 км 10 баллов +2.0 +0.7 91 -1 -1 1017.0 997.5
15 18.11 З 2 8000 м дымка 10 баллов +1.3 +0.1 92 -2 -2 1016.0 996.5
18 18.11 ЮЗ 2 6000 м дымка 10 баллов +0.6 -0.3 94 -3 -3 1014.0 994.4 +2.2
21 18.11 Ю 1 н/о н/о -0.3 -0.9 96 -3 -3 1012.0 992.4
00 19.11 Ю 1 н/о н/о +0.2 -0.1 98 -2 -2 1010.0 990.5
03 19.11 Ю 3 н/о н/о +1.0 +0.3 95 -4 -4 1007.0 987.6 -0.8
06 19.11 Ю 2 4000 м дождь 10 баллов +1.3 +0.6 95 -2 -2 1006.0 986.7 -0.8
09 19.11 ЮЗ 3 10 км 10 баллов +3.0 +0.6 84 -1 -1 1006.0 986.8
12 19.11 Ю 3 10 км 10 баллов +3.8 +0.7 80 0 0 1005.0 985.8
15 19.11 ЮЗ 3 10 км 10 баллов +3.2 +0.8 84 -1 -1 1006.0 986.8
18 19.11 Ю 3 10 км 10 баллов +3.0 +0.7 85 -1 -1 1006.0 986.8 +3.8
21 19.11 Ю 3 н/о н/о +2.7 +0.8 87 -1 -1 1006.0 986.8
00 20.11 Ю 4 н/о н/о +2.6 -0.7 79 -2 -2 1005.0 985.8
03 20.11 Ю 3 н/о н/о +1.3 -0.2 90 -3 -3 1005.0 985.7 +1.3
06 20.11 Ю 2 6000 м дымка 10 баллов +1.1 +0.2 94 -3 -3 1006.0 986.6 +1.0 0.4
09 20.11 Ю 2 3500 м дождь 10 баллов +1.1 +0.8 98 -3 -3 1007.0 987.6
12 20.11 ЮЗ 2 10 км 10 баллов +2.6 -0.8 78 -0 -0 1007.0 987.7
15 20.11 Ю 1 8000 м дымка 10 баллов +1.8 +0.6 92 -0 -0 1007.0 987.7
18 20.11 ЮЗ 2 5000 м дымка 10 баллов +1.2 +0.6 96 -2 -2 1008.0 988.6 +2.9 0.4
21 20.11 З 3 н/о н/о +0.6 -0.3 94 -4 -4 1009.0 989.5
00 21.11 З 2 н/о н/о +0.2 -0.5 95 -4 -4 1009.0 989.5
03 21.11 З 2 н/о н/о +0.3 -0.8 92 -3 -3 1010.0 990.5 +0.1

 

Местоположение метеостанции Ивацевичи (Брестская область, Беларусь): широта 52.70 долгота 25.36 высота над уровнем моря 156 м.

В архиве по умолчанию представлена погода в Ивацевичах за последнюю неделю. Архивные данные за месяц целиком и за предыдущие месяцы, начиная с января 2011 года, Вы можете получить, выбрав интересующий диапазон дат из раскрывающегося списка и нажав кнопку "Ввод!".

Внимание! Время в таблицах - всемирное. Для получения местного времени необходимо прибавить поправку, которая в Ивацевичах равна 3 ч.

Смотрите также архив погоды в соседних городах и на ближайших метеорологических станциях:

Погода в Пружанах (Брестская область, Беларусь) (61 км)
Погода в Барановичах (Брестская область, Беларусь) (63 км)
Погода в Ганцевичах (Брестская область, Беларусь) (73 км)
Погода в Пинске (Брестская область, Беларусь) (80 км)
Погода в Волковыске (Гродненская область, Беларусь) (80 км)
Погода в Полесской (Брестская область, Беларусь) (101 км)
Погода в Новогрудке (Гродненская область, Беларусь) (105 км)
Погода в Любешове (Волынская область, Украина) (115 км)
Погода в Столбцах (Минская область, Беларусь) (126 км)
Погода в Бресте (Брестская область, Беларусь) (130 км)

Пояснения к столбцам:

Ветер - указаны скорость ветра в м/с - средняя за 10 мин, порывы в срок и между сроками (в фигурных скобках) и направление, откуда дует ветер: С - северный, СВ - северо-восточный, В - восточный, ЮВ - юго-восточный, Ю - южный, ЮЗ - юго-западный, З - западный, СЗ - северо-западный.
Видимость - горизонтальная дальность видимости в метрах или километрах. При видимости от 1 до 10 км при отсутствии осадков обычно наблюдается дымка, при ухудшении видимости до 1 км и менее - туман. В сухую погоду видимость может ухудшаться дымом, пылью или мглою.
Явления - указаны атмосферные явления, наблюдавшиеся в срок или в последний час перед сроком; фигурными скобками обозначены явления, наблюдавшиеся между сроками (за 1-3 часа до срока); квадратными скобками обозначены град или гололедные отложения с указанием их диаметра в мм.
Облачность - указаны через наклонную черту общая и нижняя облачность в баллах и высота нижней границы облаков в метрах; квадратными скобками обозначены формы облаков: Ci - перистые, Cs - перисто-слоистые, Cc - перисто-кучевые, Ac - высококучевые, As - высокослоистые, Sc - слоисто-кучевые, Ns - слоисто-дождевые, Cu - кучевые, Cb - кучево-дождевые. Подробнее классификацию облаков см. в Атласе облаков (PDF).
T - Температура воздуха - температура, измеренная на высоте 2 м над землей.
Td - Температура точки росы - температура, при понижении до которой содержащийся в воздухе водяной пар достигнет насыщения.
f - Относительная влажность воздуха - влажноcть воздуха, измеренная на высоте 2 м над землей.
Te - Эффективная температура - температура, которую ощущает одетый по сезону человек в тени. Характеристика душности погоды. При расчете учитывается влияние влажности воздуха и скорости ветра на теплоощущения человека.
Tes - Эффективная температура на солнце - температура, которую ощущает человек, с поправкой на солнечный нагрев. Характеристика знойности погоды. Зависит от высоты солнца над горизонтом, облачности и скорости ветра. Ночью, в пасмурную погоду, а также при ветре 12 м/с и более поправка равна нулю.
P - Атмосферное давление - приведенное к уровню моря атмосферное давление.
Po - Атмосферное давление - измеренное на уровне метеостанции атмосферное давление.
Tmin - Минимальная температура - минимум температуры воздуха на высоте 2 м над землей.
Tmax - Максимальная температура - максимум температуры воздуха на высоте 2 м над землей.
R - Количество осадков - Количество выпавших осадков за период времени, мм. При наведении курсора мыши на число - период времени, за который выпало указанное количество осадков.
R24 - Количество осадков - Количество выпавших осадков за 24 часа, мм.
S - Снежный покров - Высота снежного покрова, см. При наведении курсора мыши на число - состояние снежного покрова и степень покрытия местности в баллах.